Location: ????????
(38.4362°N, 22.8767°E)
Time: 14:21:21
(UTC+00:00)

AQUA - Pass Details

Date: 23 April 2024
Orbit: 694 x 696 km, 98.3° (Epoch: 18 May)

Event Time Altitude Azimuth Distance (km) Brightness Sun altitude
Rises 01:11:02 0° 8° (N) 3,083 7.9 -26.1°
Reaches altitude 10° 01:13:19 10° 5° (N) 2,161 6.9 -25.8°
Enters shadow 01:17:33 58° 312° (NW) 811 4.0 -25.2°
